Location: Amsterdam
(30.7274°N, 84.4357°W)
Time: 00:52:07
(UTC+00:00)

BlueWalker 3 - Pass Details

Date: 21 January 2026
Orbit: 450 x 461 km, 53.2° (Epoch: 11 February)

Event Time Altitude Azimuth Distance (km) Brightness Sun altitude
Rises 23:31:41 0° 233° (SW) 2,444 7.1 -6.4°
Reaches altitude 10° 23:33:52 10° 239° (WSW) 1,574 6.1 -6.8°
Maximum altitude 23:37:18 48° 314° (NW) 595 2.5 -7.5°
Drops below altitude 10° 23:40:44 10° 31° (NNE) 1,578 4.0 -8.2°
Enters shadow 23:41:34 - 34° (NNE) 1,908 4.4 -8.4°
